CZ-6A DEB, 54893

Orbit data source: Space-Track

CZ-6A DEB, 54893 is space debris in SSO originally from a launch on Fri, 11 Nov 2022 UTC launched from the Taiyaun Space Center, China (TSC). Debris objects in space refer to the collection of defunct objects orbiting the Earth. Examples of debris include non-operational satellites, rocket bodies, and fragments generated from explosions, collisions, or faulty payload assembly.

Loading next visibility...
Identifier
54893, 2022-151QE
Orbit
SSO
Country
Flag of CNCN / PRC
Related business
Manufacturer
SAST
Mission
Spacecraft
Bus & Motor
Unknown
Mass
Unknown
Launch date (UTC)
2022-11-11 (3 years ago)
Launch vehicle
Unknown
Launch site
Taiyaun Space Center, China (TSC)
Object type
Payload
Rocket body
Debris
Shape & HBR
Unknown shape, 0.1 m
Radar Cross Section
Small (<0.1 m²)

Expand to show TLE details & history
Last TLE update: 13 hours ago

TLE from 13 hours ago
0 CZ-6A DEB
1 54893U 22151QE  25355.06373788  .00001763  00000-0  50654-3 0  9992
2 54893  98.6384  31.2610 0070016 102.7473 258.1555 14.44717455160471
Epoch: 2025-12-21T01:31Z
TLE epoch observation values (Epoch: 2025-12-21T01:31:46.952Z)
Latitude
0.00001°
Longitude
-81.5662°
Altitude
756.475 km
Speed
7.471 km/s
True Right ascension
02h 05m 02s
True Declination
0° 00' 00"
Sunlit
Object was in full shadow at epoch
Visualization orbit readout
Latitude
Unknown
Longitude
Unknown
Altitude
Unknown
Speed
Unknown
Apparent Right ascension
Unknown
Apparent Declination
Unknown
Sunlit
N/A
Visualization observer readout
Local Sidereal Time
13:56:43
Azimuth
Unknown
Elevation
Unknown
Doppler factor
Unknown
Orbital elements
Apogee altitude
789.915 km
Perigee altitude
690.238 km
Semi-major axis
7,118.213 km
Eccentricity
0.007
Inclination
98.6384°
RAAN
31.261°
Arg. of periapsis
102.7473°
True anomaly
257.37169°
Mean anomaly
258.1555°
Eccentric anomaly
257.76345°
Mean motion
3.61399 °/min
Orbital period
99.61 mins
BSTAR
0.00050654
Loading maneuver chart data...
Computing Atmospheric mass density...
Loading historical data...
Loading historical data...
Loading historical data...
Loading historical data...
Loading historical data...
Loading historical data...
Loading historical data...

Documentation

Showing up to 5 results
|